Temp
13 13 13 13 13 12 11 11 11 12 12 12 11 12 11 12 13 13 12 12 13 13 13 14 14 14 13 11 10 9 12 11 11 11 12 10 11 9 8 9 8 9 9 9 7
14 13 14 13 13 13 12 11 11 10 10 11 11 11 12 12 12 12 13 13 13 13 13 12 12 12 11 11 10 10 12 12 11 11 11 11 11 9 9 8 8 8 8 7 6
13 14 14 14 14 13 13 13 13 12 11 10 11 12 12 12 12 13 12 12 12 13 13 13 12 12 12 11 11 10 12 11 11 11 11 11 9 8 8 8 7 7 7 7 6
13 13 13 14 14 14 13 13 13 13 12 12 12 12 12 12 15 13 13 13 13 13 13 12 12 12 11 12 11 12 11 11 12 12 11 10 8 7 8 8 8 7 6 6 5
13 13 13 14 14 14 13 13 13 13 12 12 11 11 12 12 12 13 13 13 13 13 12 11 11 11 11 11 11 11 11 12 12 11 11 9 8 9 7 7 6 6 6 5 5
13 13 13 13 14 14 14 13 13 13 13 12 11 11 11 12 13 13 13 13 13 13 12 12 11 11 11 11 11 10 11 11 11 11 10 9 7 7 8 7 6 6 6 5 4
13 13 13 13 13 13 14 14 14 13 13 12 11 11 11 11 12 12 13 12 12 12 12 12 12 12 11 11 10 10 11 10 10 10 9 8 7 7 7 6 6 6 5 4 4
12 13 13 13 13 13 13 14 14 13 12 12 11 11 10 12 12 13 12 12 12 12 12 12 12 11 10 10 10 10 9 11 10 9 8 9 9 7 7 6 6 5 5 4 3
13 13 13 13 12 12 13 13 14 13 12 11 11 11 11 12 12 11 11 11 11 12 12 12 11 9 9 10 10 9 11 9 10 9 9 8 8 7 7 6 5 5 4 3 2
13 13 12 12 12 12 13 13 14 13 12 11 11 11 12 11 11 10 10 10 9 10 12 11 9 9 8 10 12 11 10 8 8 9 8 8 7 7 7 5 4 3 2 1 -0
13 13 12 12 12 12 12 13 11 11 11 12 11 12 12 11 10 10 9 10 10 10 10 9 10 10 10 9 8 8 8 8 8 8 7 7 6 6 6 6 4 4 2 0 -1
13 13 12 12 11 11 12 11 10 9 9 11 11 11 11 11 11 10 10 10 10 10 10 10 10 9 9 8 8 8 8 8 7 7 8 6 6 4 6 5 3 1 0 -0 -0
13 13 12 12 11 10 11 10 9 9 9 11 11 11 10 10 8 8 8 9 10 10 10 10 9 9 9 8 8 8 8 8 8 7 6 5 6 2 5 4 4 4 2 0 -1
13 12 12 12 10 9 8 8 9 8 10 11 10 10 10 9 9 9 8 8 9 10 10 10 8 9 9 9 8 8 7 7 6 6 7 5 7 4 3 2 4 4 1 -0 -1
11 12 12 12 11 7 8 7 8 8 14 11 10 10 9 9 9 8 8 8 9 9 10 10 9 9 9 8 7 8 6 6 6 6 5 5 4 5 2 2 3 2 1 -0 -1
13 12 12 9 8 7 7 7 7 11 11 11 10 10 9 8 9 9 8 8 7 9 9 8 8 8 8 7 7 6 6 6 4 4 3 1 3 7 2 0 2 1 -0 -1 -2
9 8 8 8 8 9 8 7 11 13 12 11 11 9 9 9 9 8 6 5 7 8 8 9 8 7 7 8 6 6 5 5 7 3 5 0 4 5 1 1 -3 -2 -2 -3 -2
8 8 6 6 6 6 7 9 12 12 12 9 9 9 10 9 8 8 7 7 5 4 5 10 11 7 7 6 6 5 4 4 9 6 5 3 3 6 2 1 -3 -5 -5 -2 -2
8 7 5 4 5 6 8 11 11 12 11 9 9 10 10 9 7 7 8 6 6 4 7 7 9 7 6 5 5 5 4 2 -1 -3 2 4 4 4 2 1 0 -2 -4 -4 -4
8 6 3 5 5 6 8 11 10 9 9 9 11 10 10 9 7 6 7 6 5 4 4 5 7 6 6 5 4 5 3 4 0 4 6 4 2 5 3 -0 -1 -3 -5 -5 -4
7 7 3 4 5 7 9 9 10 6 7 9 10 9 8 8 7 7 7 5 5 4 4 4 5 6 6 5 5 5 3 1 1 -1 2 4 6 -2 -3 -4 -5 -5 -6 -6 -6
6 6 4 4 6 5 7 7 6 6 5 6 7 8 8 6 6 6 7 6 5 5 4 4 4 6 6 3 3 3 3 2 4 1 -5 -2 4 -2 -3 -6 -8 -7 -7 -7 -6
5 4 3 4 8 7 6 6 5 5 5 5 7 6 5 6 7 6 6 4 5 4 4 4 3 6 6 4 3 3 2 -2 -4 -3 -3 1 6 -1 -3 -4 -6 -9 -7 -8 -7
5 6 3 3 3 6 6 7 7 4 5 5 5 5 4 5 3 5 5 4 4 5 6 5 2 5 8 7 2 1 0 -0 0 1 -4 -1 2 1 0 -3 -4 -6 -9 -8 -7
5 6 6 5 5 5 5 6 6 7 4 4 4 5 5 5 3 4 3 3 3 5 2 3 4 1 3 3 3 3 -0 -2 -1 -1 2 -1 -3 -1 -2 -5 -6 -11 -10 -8 -7
6 5 4 5 5 5 5 6 7 7 5 4 5 5 4 5 5 3 3 3 4 2 0 -0 4 2 2 3 3 3 3 1 -2 -1 -2 -5 -2 -3 -5 -8 -7 -9 -10 -8 -8
6 5 6 6 5 5 6 6 7 6 5 5 4 4 4 4 3 1 2 1 3 2 0 0 1 2 6 2 1 5 1 0 -1 -3 -2 1 2 -1 -2 -1 -5 -7 -11 -10 -9
Height
819 817 816 814 812 810 809 807 805 802 800 799 797 795 793 791 788 786 787 789 787 784 780 776 777 775 775 779 782 783 785 790 790 795 790 797 797 801 804 805 806 806 806 805 802
819 817 814 813 811 809 808 807 804 802 800 796 795 794 792 790 789 786 787 786 784 783 781 779 776 777 781 782 783 786 786 784 789 790 790 793 795 800 804 805 805 805 802 802 800
819 816 814 812 810 809 807 804 801 799 799 798 796 794 792 789 789 787 786 785 784 781 779 780 779 777 783 785 786 788 785 788 788 789 789 792 797 801 802 805 806 806 803 799 795
819 816 815 812 808 807 806 804 801 798 796 794 794 793 792 791 790 787 785 782 782 781 779 778 779 781 786 788 786 784 787 787 785 786 790 793 798 802 802 801 804 804 804 801 796
818 816 813 812 809 806 805 803 800 797 795 794 794 793 793 792 790 787 784 783 782 781 780 780 783 784 785 789 789 785 786 786 786 787 790 794 795 795 799 801 803 802 800 797 791
817 815 813 810 808 807 805 802 800 798 795 793 792 791 793 795 788 789 785 783 783 782 783 781 784 784 785 789 789 789 788 788 787 788 790 793 799 798 798 800 800 799 797 792 788
814 812 810 809 808 806 803 800 798 796 794 792 792 791 792 792 789 789 786 785 785 784 785 783 785 783 789 787 790 790 788 789 789 789 792 794 798 798 798 801 800 798 794 790 786
812 810 808 806 805 804 802 799 795 792 791 791 790 791 790 787 788 788 787 786 785 784 785 784 784 787 791 793 790 793 795 789 788 789 794 792 784 795 798 799 798 794 790 788 783
808 807 806 804 804 802 799 796 792 789 789 790 791 790 790 787 787 787 787 787 785 785 783 786 785 792 792 793 791 797 788 797 790 788 791 794 790 795 797 799 797 793 792 788 777
803 803 802 802 801 800 797 793 789 788 789 790 791 794 789 790 789 787 786 785 785 786 786 786 791 792 795 791 779 786 792 799 797 791 791 792 793 795 796 799 799 796 793 789 781
798 798 799 797 797 798 795 791 791 791 790 790 791 789 789 790 789 788 786 785 785 787 789 790 790 788 787 794 797 797 800 801 798 792 794 795 796 793 795 796 796 790 792 788 783
792 791 793 794 794 795 794 795 795 799 797 790 789 788 788 788 788 788 788 785 786 787 790 790 788 792 794 796 797 797 798 799 795 795 796 796 791 800 793 797 800 800 794 788 775
785 786 789 791 792 793 792 793 794 796 798 789 789 788 789 789 792 791 788 787 788 786 788 785 790 792 792 796 794 792 797 799 796 798 800 799 792 811 796 798 796 792 793 788 777
784 784 786 787 793 791 794 792 793 795 795 787 791 790 789 789 793 791 788 789 788 788 788 788 793 791 793 793 796 797 800 800 801 803 796 804 793 802 805 805 791 790 790 784 775
779 779 781 783 784 789 789 789 794 795 783 791 791 791 791 792 795 792 790 787 789 790 790 787 791 792 792 795 798 794 803 803 799 804 808 807 811 795 810 807 794 795 793 785 776
776 774 777 780 785 786 789 789 797 794 790 785 790 789 791 791 794 791 788 788 792 792 792 793 795 796 797 798 798 802 802 804 811 813 825 833 817 789 810 819 805 802 795 787 777
780 778 780 782 782 783 786 794 791 780 781 784 785 788 789 787 792 793 796 802 800 795 796 791 794 798 799 797 802 803 810 813 798 824 806 836 816 800 816 814 821 813 802 792 780
784 784 785 786 787 788 789 792 781 773 773 788 790 789 783 792 795 792 795 795 808 811 813 786 778 800 802 805 806 810 815 819 790 806 811 819 822 791 809 810 815 816 811 795 782
786 787 788 790 790 791 792 785 782 776 776 784 789 784 784 792 800 794 792 800 803 810 803 803 790 804 806 809 811 808 817 827 855 870 840 816 807 801 807 808 806 807 805 797 784
787 788 794 793 792 793 794 782 784 785 786 782 776 780 779 790 800 801 795 800 805 809 812 808 803 804 808 809 812 808 821 818 842 827 810 813 825 799 808 813 808 809 811 803 789
787 789 796 795 796 795 792 787 782 791 793 786 779 781 787 792 794 793 792 803 805 810 811 813 812 807 807 811 810 814 823 834 842 858 842 825 799 827 831 828 827 822 817 810 797
787 795 797 797 798 799 795 793 794 793 796 791 788 784 786 796 800 797 792 796 804 806 811 812 815 806 808 819 820 819 820 827 819 844 886 864 813 822 826 830 833 825 819 812 801
792 798 798 797 789 793 795 795 795 797 795 793 787 789 796 795 792 798 797 805 805 806 811 811 817 809 802 817 820 819 826 844 856 859 868 840 799 821 826 824 825 829 820 815 804
793 794 799 799 799 794 791 789 788 798 795 794 792 795 799 799 805 800 802 806 806 805 803 808 821 804 789 795 822 830 833 835 834 834 868 847 818 812 816 822 819 823 822 818 809
790 790 789 793 794 794 792 788 789 787 798 795 793 790 792 797 806 802 809 809 808 804 813 814 813 825 813 812 816 814 830 842 839 836 822 838 842 818 823 826 824 833 826 819 812
789 789 793 792 790 792 790 785 779 782 789 790 790 784 792 790 789 799 802 807 800 814 819 821 809 820 818 813 814 812 813 824 837 833 838 850 832 821 826 829 826 829 827 823 818
782 784 786 784 789 788 785 783 779 782 781 783 785 788 790 791 796 803 801 806 802 809 818 820 821 820 799 818 823 800 814 817 823 832 826 818 807 815 818 812 824 824 829 826 822
Wind_Speed
13 13 13 14 14 15 15 15 15 14 14 13 14 13 14 15 13 5 3 8 9 12 13 11 4 6 4 3 3 2 3 2 5 7 2 5 4 1 2 4 1 1 2 10 22
13 14 14 15 15 15 16 16 16 15 15 12 12 13 13 15 11 2 5 9 9 10 10 9 4 7 3 2 3 3 2 4 3 4 3 5 4 6 4 1 1 4 11 16 22
14 14 14 15 15 16 17 17 17 16 15 14 12 12 13 11 3 1 9 10 8 7 6 3 3 3 4 2 3 1 2 2 3 3 3 4 4 3 5 2 2 6 14 22 27
14 15 15 15 15 16 17 17 17 16 14 11 10 12 13 5 4 2 13 7 4 6 3 4 4 3 3 2 2 2 1 3 1 2 3 4 8 4 4 4 3 5 9 13 18
15 15 15 16 15 15 18 19 18 16 13 12 10 11 6 3 4 7 11 6 4 4 9 3 3 1 3 1 2 1 2 2 1 1 1 8 3 3 5 5 2 7 10 14 16
15 15 16 16 16 17 18 19 20 18 13 11 8 8 2 3 2 10 11 5 9 7 7 6 2 1 4 1 0 1 1 3 2 2 4 3 2 1 2 2 8 8 14 16 18
16 16 16 17 17 17 19 20 20 19 14 11 6 5 1 6 2 9 11 6 8 6 2 4 3 4 0 2 2 1 3 3 0 1 2 3 3 5 3 1 8 13 13 17 19
19 17 16 16 17 18 19 20 21 20 11 6 3 1 4 1 2 8 12 6 8 3 2 3 5 4 3 2 3 1 2 2 1 3 2 4 4 1 2 4 10 14 16 17 21
22 19 18 17 17 18 20 21 22 13 5 5 2 2 5 2 2 6 9 3 7 9 6 2 4 2 1 0 1 3 2 2 5 3 3 3 3 3 3 1 9 13 15 17 20
24 22 19 17 16 18 20 21 12 5 2 1 1 2 1 1 1 2 5 5 4 4 2 3 3 1 1 1 3 1 3 3 5 0 1 4 12 6 5 4 8 10 13 15 18
24 25 21 16 15 16 20 6 6 3 3 2 1 2 1 2 1 5 5 1 3 2 2 0 1 3 1 2 2 2 1 5 4 3 2 4 7 8 5 4 12 16 16 17 18
27 29 19 17 14 12 9 2 3 1 6 1 1 2 1 1 2 3 10 3 2 3 3 1 3 1 2 2 1 1 2 5 4 2 2 5 10 5 3 1 4 8 14 18 20
19 22 19 17 13 8 0 2 3 1 1 1 1 2 1 3 2 3 4 1 1 2 3 3 1 2 2 2 2 1 3 3 4 6 2 6 4 4 2 2 8 12 12 15 20
17 18 19 18 5 5 2 4 4 2 1 2 1 1 2 2 2 1 2 2 0 1 1 1 1 1 1 1 1 3 1 2 6 3 3 3 4 2 5 8 14 17 18 19 21
17 16 24 23 9 2 8 5 3 2 4 2 1 1 2 1 2 0 1 2 0 0 0 0 1 1 1 1 2 2 2 1 1 2 2 2 2 3 4 9 19 19 19 21 21
14 7 22 10 4 6 5 6 2 1 6 2 2 1 0 2 2 1 2 4 1 1 1 1 1 2 1 1 1 3 1 2 3 2 1 3 2 2 2 3 14 16 19 21 22
5 12 8 8 3 8 9 2 0 3 2 2 3 2 2 1 1 2 2 4 1 3 1 1 1 1 2 1 1 4 3 3 4 3 3 2 1 4 3 4 5 13 18 19 20
5 6 9 8 9 12 7 1 4 4 3 2 1 2 1 2 1 1 3 1 1 2 1 3 2 3 3 2 0 3 2 4 4 2 4 3 4 2 3 4 6 8 9 17 20
5 7 6 5 8 3 2 2 4 4 3 5 1 1 1 0 2 3 1 2 2 4 4 2 0 2 4 2 1 1 2 2 6 1 1 3 4 3 2 7 10 13 15 18 20
3 4 5 3 2 3 2 5 3 3 2 2 3 2 1 3 1 1 0 1 3 1 1 2 1 1 2 1 6 2 6 2 3 2 4 3 3 3 9 11 15 16 16 17 20
2 2 4 2 2 2 2 4 2 1 2 4 4 2 4 3 3 3 1 2 1 3 1 2 2 1 0 2 0 1 1 5 5 1 3 2 3 5 5 5 9 11 12 14 17
1 0 2 3 1 0 2 2 4 2 1 3 1 3 4 6 4 3 4 2 3 4 3 1 3 1 1 1 1 1 1 2 3 3 2 1 5 2 5 5 4 8 10 12 13
2 1 2 3 3 4 2 3 2 2 3 3 4 1 2 4 3 2 2 2 3 3 3 4 1 2 2 1 1 2 2 3 4 2 4 3 4 3 2 6 3 5 10 11 13
2 1 1 2 0 2 2 4 3 2 3 2 2 4 2 4 1 2 3 1 1 1 3 2 2 4 3 3 3 2 2 3 2 2 5 5 6 3 5 6 7 7 8 10 10
2 2 1 2 3 3 1 1 2 3 2 3 2 7 5 4 3 4 3 2 0 3 1 3 3 2 2 1 2 2 4 6 6 3 5 3 5 7 6 4 5 4 8 9 12
2 2 0 1 2 4 5 3 7 5 6 4 6 6 7 5 4 6 6 4 4 2 2 1 2 2 2 1 2 4 6 7 2 2 7 2 7 6 4 2 4 4 7 7 10
4 3 1 4 2 3 4 4 3 4 4 1 6 4 7 4 1 1 4 4 3 6 4 3 4 2 3 1 4 5 7 10 4 4 6 4 5 4 1 2 0 3 4 5 7
Wind_Direction
357 355 352 353 353 353 348 344 343 339 339 334 330 330 330 332 337 342 26 335 322 327 329 341 346 18 48 65 38 122 68 176 191 163 168 166 164 110 88 134 180 218 285 302 312
355 352 353 351 352 351 348 343 340 339 334 333 332 329 326 329 326 337 360 335 334 329 339 4 6 359 40 26 27 65 123 208 177 167 164 174 180 159 169 96 9 313 309 313 315
349 351 350 350 349 347 346 344 345 342 336 329 333 334 331 330 320 129 352 339 338 344 334 358 352 60 53 4 3 85 145 166 205 191 154 159 153 141 148 208 180 304 309 318 321
343 346 345 346 349 347 342 343 342 341 339 333 328 333 328 322 322 341 337 343 353 348 27 29 32 53 64 8 345 97 126 175 293 199 152 178 129 172 189 177 201 263 278 303 311
332 338 340 341 343 344 342 343 342 339 339 336 330 336 337 345 272 3 1 20 25 43 49 52 53 78 98 324 306 93 202 205 351 301 224 136 152 228 211 196 282 287 301 317 316
318 327 332 336 338 339 339 341 341 339 332 333 327 336 322 283 126 1 6 38 37 45 39 47 85 104 100 148 234 315 286 287 277 319 168 158 171 118 209 260 321 335 321 321 317
304 313 322 328 331 333 333 336 333 330 323 329 323 339 339 249 19 5 11 41 31 33 39 58 47 66 336 143 328 77 318 311 158 155 145 148 222 225 162 305 329 319 324 324 320
294 303 310 320 322 324 327 331 328 320 306 317 322 24 237 27 13 14 28 50 13 28 32 56 53 91 25 319 37 58 67 312 147 153 125 104 268 179 181 358 327 333 337 329 323
287 294 300 310 315 317 322 326 321 317 291 284 299 145 283 95 67 7 14 12 49 26 49 19 60 77 85 13 255 29 258 281 304 168 129 193 269 195 191 307 335 337 333 325 325
283 284 289 298 308 313 321 325 320 330 44 219 264 330 12 353 322 25 11 22 68 343 304 59 57 171 76 158 255 271 307 260 263 31 231 236 258 249 218 334 325 324 328 326 322
279 277 276 279 294 308 325 328 16 3 58 249 310 297 43 319 139 34 356 256 134 205 201 61 282 249 206 170 134 143 212 264 255 275 293 250 268 272 236 330 347 339 335 328 319
274 273 264 270 282 296 326 37 141 260 307 4 242 141 104 330 252 19 354 56 151 216 154 186 232 90 106 150 151 165 296 271 274 320 299 312 295 273 242 292 322 304 321 322 324
297 254 261 266 268 284 106 142 133 129 271 268 25 78 293 18 181 292 19 25 350 239 202 202 154 172 190 183 304 234 212 249 276 332 256 308 297 350 343 345 326 341 329 328 333
297 272 262 250 256 179 66 139 145 155 317 191 253 322 42 69 296 270 30 93 170 286 212 188 56 123 182 271 85 294 123 310 281 312 288 345 287 338 321 318 341 344 338 335 337
311 270 256 242 169 174 160 147 175 164 297 70 262 307 31 108 310 309 45 101 157 264 203 37 72 67 242 97 142 274 329 318 341 154 337 334 88 278 360 340 339 334 334 337 335
331 252 241 178 121 124 136 120 209 67 251 138 162 212 8 53 295 272 72 58 133 97 36 86 103 62 321 315 172 329 148 51 61 54 356 267 94 287 333 264 318 330 337 338 334
66 153 142 154 158 142 130 158 87 193 54 191 206 180 169 36 304 4 43 21 63 28 306 81 85 57 31 19 118 46 53 322 343 11 233 299 280 261 248 275 257 316 328 330 332
8 114 82 76 118 127 122 25 227 174 214 67 348 258 213 40 274 281 124 84 77 94 129 184 276 4 7 58 272 45 137 146 257 307 298 291 254 314 216 272 284 281 297 332 335
28 59 61 74 126 155 77 165 219 237 135 153 215 223 164 208 254 8 116 167 140 176 176 107 173 102 57 64 337 126 45 162 98 138 314 286 291 328 202 313 330 352 350 344 336
17 74 34 54 129 17 81 250 267 360 86 102 234 180 236 190 217 95 246 139 149 156 133 178 20 35 135 228 48 69 135 84 22 21 317 317 293 272 335 327 333 351 342 340 334
347 82 359 119 102 63 218 242 290 46 343 214 199 156 197 233 222 212 185 117 160 133 101 139 107 299 139 17 342 137 46 64 104 77 153 310 284 215 237 268 307 327 325 335 333
340 36 350 165 92 104 207 268 351 267 320 295 316 185 185 172 217 243 206 131 146 150 154 144 148 183 228 129 344 101 143 140 121 252 64 108 279 277 225 252 279 314 323 331 330
72 43 2 2 212 220 215 231 192 211 240 229 200 192 85 199 230 227 150 70 129 147 169 182 295 351 331 97 2 230 133 115 107 94 196 135 270 204 264 314 324 317 334 339 333
117 294 355 20 43 286 171 226 223 192 229 259 119 98 140 193 240 220 183 149 135 175 152 141 124 184 209 208 120 150 191 170 127 132 162 230 299 221 332 333 340 352 331 336 336
140 250 197 203 233 211 262 348 207 243 226 209 247 225 173 181 167 221 129 190 210 195 119 163 202 160 268 204 196 221 177 180 181 181 170 245 217 281 290 272 295 309 320 351 356
184 165 309 212 156 165 177 234 233 219 176 207 228 180 186 183 188 181 157 208 195 78 138 354 140 134 296 205 237 265 208 189 188 220 263 196 277 212 253 272 327 331 340 355 349
166 139 163 180 169 157 208 224 267 126 207 44 205 144 197 168 84 51 84 70 110 153 161 144 135 132 266 317 307 280 209 180 178 216 153 174 218 179 195 315 208 322 332 331 333